Location: Crocus Hill
(18.2167°N, 63.0667°W)
Time: 21:57:05
(UTC+00:00)

SL-8 Rocket - Pass Details

Date: 26 January 2020
Orbit: 956 x 991 km, 82.9° (Epoch: 20 February)

Event Time Altitude Azimuth Distance (km) Brightness Sun altitude
Rises 09:56:21 0° 350° (N) 3,637 6.7 -12.2°
Reaches altitude 10° 09:58:53 10° 347° (NNW) 2,687 6.0 -11.6°
Maximum altitude 10:04:55 62° 268° (W) 1,065 4.0 -10.3°
Drops below altitude 10° 10:10:56 10° 188° (S) 2,678 6.4 -8.9°
Sets 10:13:27 0° 185° (S) 3,623 7.2 -8.3°
